Theta_e
287 286 285 285 285 286 285 285 285 284 284 284 284 284 284 284 285 285 285 286 286 286 286 286 287 287 288 288 288 288 288 288 287 287 286 285 285 285 286 286 285 285
286 286 286 286 286 286 286 286 285 285 284 284 284 284 285 285 284 284 285 285 285 285 286 286 285 286 286 286 286 286 286 287 287 288 287 286 286 285 284 284 284 285
285 285 285 285 285 285 285 286 286 285 285 285 285 286 285 286 285 285 285 285 285 285 285 286 285 285 285 285 285 285 285 285 286 286 286 286 286 285 285 284 284 284
284 285 284 285 285 284 285 284 285 285 285 284 285 285 285 286 285 284 285 285 284 284 284 285 285 285 284 284 285 285 285 285 285 284 285 286 286 285 285 285 284 284
284 284 284 284 283 283 283 284 283 284 284 284 284 284 284 284 284 283 284 284 284 284 284 284 284 284 284 284 284 284 285 285 285 286 285 285 286 286 286 285 285 284
283 282 281 281 281 281 282 281 282 282 282 282 282 282 282 282 283 283 283 283 283 283 283 284 284 284 284 284 284 284 284 284 285 285 285 285 286 286 286 286 285 284
282 281 281 280 280 280 280 280 280 280 280 280 281 282 282 282 281 282 282 282 282 283 283 283 283 283 283 283 283 283 283 283 284 284 284 285 285 285 286 286 285 285
281 281 281 280 280 280 280 281 281 281 281 281 281 282 281 282 281 281 281 280 281 282 282 282 282 282 282 283 282 282 282 284 284 283 283 283 284 284 285 286 286 285
280 280 280 280 280 280 279 280 280 280 281 281 281 282 281 281 281 281 281 281 280 281 281 281 282 282 282 282 282 282 282 282 283 283 282 282 282 283 284 285 285 285
280 280 280 280 280 279 279 279 279 280 280 280 281 280 281 281 281 281 280 280 280 280 281 281 281 281 281 281 281 281 281 281 282 282 282 282 282 282 283 283 283 284
278 278 278 278 278 278 278 278 278 279 279 279 279 279 279 280 280 280 280 280 280 280 280 281 281 281 280 281 281 281 281 281 281 281 282 282 282 282 283 283 283 283
277 277 277 277 278 278 278 278 278 278 278 279 278 278 279 279 279 279 280 279 280 280 280 280 280 280 280 280 280 281 281 281 281 281 281 281 281 282 282 283 283 283
276 277 277 277 277 278 278 278 278 278 278 278 278 278 278 278 279 279 279 279 279 279 279 280 280 280 280 280 280 280 280 280 280 280 280 280 281 281 281 282 282 283
276 277 277 277 277 277 277 277 277 277 277 277 277 277 277 277 277 278 278 278 279 279 279 279 279 279 279 280 280 280 280 279 279 279 279 279 280 280 281 281 281 282
276 276 276 276 276 276 276 276 276 276 276 275 275 275 276 276 276 276 276 276 277 277 278 278 278 278 279 279 279 279 280 280 280 280 280 279 279 280 280 281 281 281
274 274 274 274 274 274 273 273 272 272 272 272 272 273 273 274 274 274 275 274 275 275 276 276 277 277 279 281 281 280 279 280 280 280 280 279 279 280 280 281 281 281
273 273 273 272 272 271 270 270 270 270 270 270 270 270 271 271 272 272 272 273 273 273 273 274 274 275 278 280 281 282 280 278 278 278 279 279 279 278 278 279 280 281
272 272 271 270 270 269 269 268 268 268 268 268 268 268 269 269 269 269 270 270 270 270 270 270 271 274 276 277 278 279 279 277 277 277 278 278 278 278 278 278 279 279
270 269 268 268 267 267 267 266 266 266 266 266 266 266 267 266 267 266 266 267 267 267 267 268 268 271 274 275 276 277 278 277 276 276 276 276 276 277 277 277 278 278
268 266 266 265 265 265 265 264 264 264 264 264 265 265 264 264 264 264 264 264 265 265 265 265 265 268 273 274 275 276 276 276 274 274 275 275 276 276 276 276 276 277
265 264 264 264 263 263 263 262 262 262 263 263 263 263 263 262 262 262 263 263 263 263 263 263 264 270 272 273 273 274 274 274 271 271 271 272 273 274 275 276 276 276
264 263 262 262 262 262 261 261 261 261 261 262 262 262 262 262 262 262 261 261 262 262 262 262 263 269 270 271 272 273 274 270 269 269 269 269 270 271 272 273 274 275
263 262 261 261 261 260 260 260 260 260 260 261 260 260 261 260 260 261 261 261 261 261 261 261 261 265 269 270 271 272 271 268 268 268 268 268 269 270 270 271 272 273
262 261 260 260 259 259 259 260 260 260 260 260 260 259 259 259 260 260 260 260 260 260 260 260 261 264 268 269 270 271 271 268 267 267 267 267 268 269 270 271 272 274
261 260 260 259 259 259 259 259 259 259 259 260 259 259 259 259 259 259 259 259 259 260 262 261 260 262 267 268 270 271 269 268 267 267 266 266 267 267 269 269 270 272
260 259 259 258 258 258 258 258 259 259 259 259 258 258 258 258 258 258 258 258 259 259 259 260 260 260 263 268 269 270 271 268 267 266 266 266 267 267 267 268 268 269
Wind_Speed
7 6 6 7 7 7 8 8 7 7 6 5 6 6 6 6 7 8 8 8 8 7 7 7 7 7 7 7 7 7 6 6 7 6 6 5 6 6 7 7 6 7
8 7 7 7 7 7 7 6 6 6 6 5 5 5 5 6 6 5 7 8 8 8 7 7 6 6 6 6 6 7 7 6 7 6 6 8 7 6 7 8 7 7
6 7 7 7 6 6 6 6 5 5 5 5 5 5 6 6 7 7 7 7 6 7 8 7 7 6 6 6 6 6 6 6 6 6 5 7 7 7 7 7 7 7
6 5 5 5 5 4 4 4 4 3 3 4 5 5 4 5 5 7 7 8 7 8 7 7 6 6 6 5 5 6 6 5 4 4 4 5 6 5 7 6 7 7
4 5 4 4 3 4 4 5 6 6 5 5 5 5 5 6 6 6 6 6 6 7 7 8 7 7 7 6 5 6 5 6 6 5 5 6 6 5 6 6 7 8
5 4 4 4 4 5 7 6 5 6 6 6 7 6 5 5 6 6 7 7 6 6 7 7 7 7 7 7 7 7 6 6 6 5 5 6 7 6 5 6 7 8
4 3 4 3 4 4 4 4 4 4 4 4 4 6 5 6 7 8 8 8 8 8 7 7 7 8 7 6 6 7 8 7 8 7 6 6 6 8 6 6 6 7
4 3 3 3 3 4 4 4 5 6 6 6 7 7 5 7 8 6 5 6 7 9 9 9 8 7 7 6 7 7 8 6 7 8 9 9 6 7 8 6 6 7
4 4 3 4 4 4 4 4 5 5 6 6 8 9 8 7 7 8 8 8 8 8 8 8 8 9 8 7 8 8 9 8 7 8 9 9 9 10 9 8 8 8
4 4 5 5 5 5 5 6 6 6 6 6 7 6 8 8 8 8 8 8 9 9 9 9 10 9 9 8 9 9 9 10 9 9 9 9 9 10 9 9 10 11
6 5 5 5 5 5 5 5 5 5 5 5 6 7 6 7 7 5 7 7 8 10 11 11 11 10 11 11 9 8 9 10 10 9 9 10 10 10 10 10 10 11
4 4 4 4 4 4 5 5 6 5 6 6 5 8 8 6 7 7 7 9 9 8 9 9 10 10 11 11 11 11 10 10 10 10 10 11 11 11 11 10 11 12
3 4 4 4 5 6 6 6 7 7 7 8 8 8 9 10 10 11 10 9 10 10 9 10 10 10 10 11 11 10 11 12 12 11 11 10 11 12 12 11 12 12
5 5 5 5 5 5 6 6 6 8 8 8 8 9 9 9 9 10 10 9 11 11 11 11 11 12 11 10 9 9 10 11 12 13 14 14 13 12 12 12 13 13
6 5 4 5 6 6 6 7 8 8 9 9 9 10 10 11 11 11 12 12 11 10 12 11 11 11 10 9 11 13 12 12 12 12 13 14 14 14 14 13 13 13
4 3 4 4 5 6 6 7 7 8 8 8 9 9 10 10 11 11 11 12 13 13 12 11 11 10 12 23 21 15 14 13 13 13 13 13 14 14 15 15 15 14
8 9 9 9 9 9 8 9 10 9 8 8 8 7 9 9 9 11 10 10 11 12 12 11 10 12 24 25 26 27 19 15 14 14 14 15 14 14 15 15 14 15
8 8 9 10 10 10 11 11 11 11 11 11 11 11 10 10 10 9 10 10 11 12 12 11 11 17 24 24 26 27 24 18 15 14 13 13 13 14 13 13 15 14
7 7 7 8 8 9 9 10 11 11 11 11 13 12 11 12 11 12 11 10 11 11 14 12 12 19 22 24 24 24 25 22 14 14 14 14 14 15 15 14 14 14
7 6 7 7 7 8 8 9 10 10 10 9 10 10 10 11 10 13 11 11 11 12 12 14 14 17 23 24 23 24 24 22 15 15 16 14 14 14 14 15 14 12
6 6 7 7 8 8 8 8 9 10 10 9 9 9 10 10 11 11 11 11 10 12 11 15 12 21 23 24 24 25 25 22 15 15 15 16 17 17 16 14 16 15
5 6 6 7 8 8 8 10 9 9 10 10 9 9 8 7 9 8 11 11 10 10 12 12 13 22 24 24 25 24 26 15 12 12 13 14 14 14 15 14 13 16
5 6 7 7 8 9 9 9 10 10 9 7 10 10 9 9 8 8 9 10 12 10 13 12 12 17 23 24 24 25 20 12 13 13 14 14 14 13 13 14 14 15
6 5 7 8 8 9 10 10 9 9 9 7 9 11 11 9 8 10 8 8 11 12 10 13 13 16 24 24 25 25 21 15 12 12 14 14 15 15 14 14 16 25
5 5 6 8 9 9 9 10 10 10 9 8 8 8 10 8 9 11 9 8 8 12 18 18 14 16 22 23 25 24 19 13 13 12 15 14 14 14 14 13 15 16
5 6 7 8 10 10 9 9 9 9 9 9 9 7 9 9 9 9 12 10 9 11 11 11 13 12 15 25 24 25 24 16 12 11 13 14 13 14 13 12 14 16
Wind_Direction
45 43 46 46 46 46 44 41 36 39 30 17 20 359 3 345 353 4 4 7 13 17 11 9 7 3 357 351 349 347 342 328 322 316 312 301 285 279 278 275 269 255
38 39 39 40 39 34 35 38 34 34 24 18 5 354 351 356 356 6 8 5 3 5 3 8 8 5 1 357 350 349 339 339 328 323 324 316 301 297 285 278 274 276
36 36 36 39 37 32 27 21 24 20 19 3 357 3 354 353 354 359 5 7 1 356 356 355 357 2 358 356 353 347 340 333 325 322 324 308 306 300 288 286 284 274
36 37 36 33 28 25 16 18 14 7 350 356 357 341 345 338 346 353 353 360 358 351 349 348 348 345 352 347 352 343 334 324 309 315 313 306 297 291 288 285 280 283
30 25 27 25 17 11 14 16 9 2 359 345 335 337 336 340 343 344 348 347 352 342 341 341 339 342 343 341 342 333 329 321 318 329 324 311 300 300 292 294 290 288
6 5 13 11 9 10 3 4 349 351 346 346 339 333 332 336 340 343 343 344 341 336 331 331 329 330 335 334 334 327 323 321 312 320 313 305 304 301 292 290 289 288
339 342 342 358 352 3 345 339 325 314 318 303 302 324 322 330 336 336 337 338 334 331 328 322 322 320 324 324 323 317 317 316 315 315 307 297 295 296 292 285 280 279
324 318 312 343 348 337 335 327 329 327 325 333 331 319 332 325 327 326 324 325 325 322 323 321 317 312 312 311 307 307 304 305 308 310 310 306 301 293 289 285 276 278
317 320 332 327 338 316 324 319 318 320 322 327 323 321 325 323 319 322 322 321 317 310 308 310 310 311 311 309 304 301 298 296 295 297 296 298 300 294 295 292 286 271
319 329 336 327 330 320 327 322 326 320 320 320 308 311 309 309 315 314 314 313 309 308 307 306 307 305 305 301 299 300 299 296 295 293 290 286 284 286 287 288 286 288
338 341 338 328 317 313 307 307 309 308 308 309 308 305 301 302 302 299 297 298 299 301 304 302 301 302 301 299 296 294 293 294 294 293 292 290 287 283 281 280 280 276
338 331 320 309 305 307 311 313 314 319 321 320 318 314 315 310 304 309 305 304 300 294 288 289 292 295 295 295 298 300 298 293 290 289 290 289 288 286 282 277 274 274
312 316 310 314 322 321 322 326 329 330 332 326 325 323 319 320 319 315 314 308 304 302 297 294 293 287 288 291 295 296 296 296 296 294 288 287 285 283 281 278 273 271
335 327 332 334 333 333 332 336 340 342 338 331 330 324 318 314 311 308 305 306 304 307 306 306 303 299 296 294 290 289 291 290 291 293 294 292 287 281 279 277 273 270
329 329 335 346 338 342 348 348 347 338 332 329 325 320 318 316 316 316 314 312 309 306 305 302 300 300 302 305 305 302 296 291 288 285 284 285 285 287 284 278 274 272
316 322 332 331 341 346 346 338 333 329 325 321 316 313 314 314 313 314 314 313 313 312 311 310 306 304 306 307 306 303 302 301 298 295 291 286 284 282 280 279 279 276
352 350 350 354 351 345 343 342 337 333 327 320 317 316 314 312 315 314 311 315 317 315 312 310 308 309 311 310 309 307 306 306 302 297 293 290 286 282 281 281 277 276
352 352 354 348 348 343 340 337 333 331 330 327 325 325 322 320 317 314 317 320 316 314 308 306 306 310 311 310 307 306 305 303 300 296 293 289 286 282 280 280 281 280
357 354 345 342 340 338 332 331 331 327 327 328 323 322 322 320 321 321 319 322 319 314 312 310 311 314 313 309 306 304 303 300 294 290 287 285 284 284 283 282 282 280
353 347 338 333 331 329 327 324 324 318 317 316 312 315 317 314 316 317 317 319 319 316 310 311 310 315 312 311 311 310 308 303 297 294 288 284 283 280 279 279 279 280
346 337 329 324 324 321 319 314 311 310 309 310 309 310 314 312 314 315 313 313 314 313 308 306 308 312 313 313 314 310 305 302 292 288 286 285 284 283 284 285 285 283
334 325 319 317 315 313 310 308 307 303 306 309 304 301 297 298 298 298 303 307 308 306 302 299 304 312 311 310 309 307 305 302 295 287 281 278 278 281 282 282 281 279
321 314 311 309 308 308 305 304 306 307 304 304 300 299 300 302 297 298 303 301 302 299 299 296 299 308 308 307 306 305 305 297 293 290 288 284 280 277 275 274 274 276
308 306 303 304 302 299 299 300 300 297 295 302 298 303 300 298 299 299 295 294 296 296 294 296 298 304 306 306 304 302 301 298 295 290 288 289 292 291 292 291 287 286
298 298 296 296 295 292 294 297 298 295 295 295 289 289 290 298 298 296 294 291 286 288 296 298 295 299 303 304 301 301 301 293 292 287 288 289 291 290 288 290 292 294
295 293 291 289 290 291 290 287 290 292 291 293 290 287 292 295 293 290 293 294 291 288 290 289 291 292 297 300 301 300 300 298 290 287 287 289 289 294 298 292 292 289